{"data":{"norad_id":53917,"epoch":"2026-05-25T04:00:03.998880Z","epoch_age_seconds":56816,"freshness":"FRESH","line1":"1 53917U 22119AH  26145.16671295  .00637088  00000+0  12231-1 0  9996","line2":"2 53917  53.2165 323.8026 0001000  75.3014 166.1486 15.45406516  5884","mean_motion":15.45406516,"eccentricity":0.0001,"inclination_deg":53.2165,"raan_deg":323.8026,"arg_perigee_deg":75.3014,"mean_anomaly_deg":166.1486,"bstar":0.012231,"rev_number":588,"period_min":93.179366405622,"perigee_km":429.50303508995,"apogee_km":430.86469926339,"semimajor_km":6808.3208671767,"source":"CELESTRAK","updated_at":"2026-05-25T13:38:17.612536Z"}}